When you browse on this site, cookies collect data to enhance your experience and personalize the content and advertising you see.
Visit our Privacy Policy to learn more. By continuing to use the site, you agree to this use of cookies and data.
  • In Hungary
  • List of Countries
  • For 7 days
  • Water Temperature
  • Weather Map
  • News
  • Weather Widgets
  • user-avatar
    Login

    Hourly Weather Kavarna

    Today, 24 February, Monday

    Time Temperature Precipitation Wind Pressure Humidity
    00:00 +5°C° 0 mm 7 mps 760 mmHg 68%
    01:00 +5°C° 0 mm 7 mps 759 mmHg 67%
    02:00 +5°C° 0 mm 8 mps 759 mmHg 66%
    03:00 +6°C° 0 mm 8 mps 758 mmHg 64%
    04:00 +6°C° 0 mm 8 mps 757 mmHg 62%
    05:00 +6°C° 0 mm 8 mps 756 mmHg 60%
    06:00 +8°C° 0 mm 7 mps 756 mmHg 55%
    07:00 +9°C° 0 mm 7 mps 755 mmHg 50%
    08:00 +10°C° 0 mm 7 mps 755 mmHg 45%
    09:00 +11°C° 0 mm 8 mps 755 mmHg 47%
    10:00 +13°C° 0 mm 10 mps 755 mmHg 48%
    11:00 +15°C° 0 mm 12 mps 754 mmHg 50%
    12:00 +14°C° 0 mm 12 mps 755 mmHg 48%
    13:00 +13°C° 0 mm 12 mps 755 mmHg 46%
    14:00 +12°C° 0 mm 11 mps 755 mmHg 44%
    15:00 +11°C° 0 mm 10 mps 756 mmHg 41%
    16:00 +11°C° 0 mm 9 mps 757 mmHg 39%
    17:00 +11°C° 0 mm 8 mps 758 mmHg 37%
    18:00 +10°C° 0 mm 8 mps 759 mmHg 39%
    19:00 +9°C° 0 mm 7 mps 761 mmHg 41%
    20:00 +8°C° 0 mm 7 mps 762 mmHg 43%
    21:00 +6°C° 0 mm 7 mps 762 mmHg 45%
    22:00 +5°C° 0 mm 7 mps 763 mmHg 47%
    23:00 +5°C° 0 mm 8 mps 764 mmHg 49%

    Tomorrow, 25 February, Tuesday

    Time Temperature Precipitation Wind Pressure Humidity
    00:00 +4°C° 0 mm 6 mps 764 mmHg 52%
    01:00 +5°C° 0 mm 5 mps 764 mmHg 55%
    02:00 +4°C° 0 mm 4 mps 765 mmHg 59%
    03:00 +4°C° 0 mm 3 mps 764 mmHg 61%
    04:00 +4°C° 0 mm 2 mps 764 mmHg 62%
    05:00 +5°C° 0 mm 1 mps 764 mmHg 64%
    06:00 +5°C° 0 mm 2 mps 764 mmHg 65%
    07:00 +5°C° 0 mm 2 mps 764 mmHg 65%
    08:00 +4°C° 0 mm 3 mps 764 mmHg 66%
    09:00 +5°C° 0 mm 4 mps 764 mmHg 62%
    10:00 +7°C° 0 mm 6 mps 763 mmHg 59%
    11:00 +7°C° 0 mm 8 mps 763 mmHg 55%
    12:00 +7°C° 0 mm 8 mps 762 mmHg 54%
    13:00 +9°C° 0 mm 8 mps 761 mmHg 52%
    14:00 +8°C° 0 mm 9 mps 761 mmHg 51%
    15:00 +8°C° 0 mm 9 mps 760 mmHg 54%
    16:00 +8°C° 0 mm 9 mps 759 mmHg 57%
    17:00 +7°C° 0 mm 9 mps 758 mmHg 60%
    18:00 +7°C° 0 mm 8 mps 758 mmHg 62%
    19:00 +7°C° 0 mm 8 mps 758 mmHg 63%
    20:00 +7°C° 0 mm 8 mps 757 mmHg 65%
    21:00 +7°C° 0 mm 8 mps 757 mmHg 65%
    22:00 +8°C° 0 mm 7 mps 756 mmHg 64%
    23:00 +6°C° 0 mm 7 mps 756 mmHg 64%

    Day after tomorrow, 26 February, Wednesday

    Time Temperature Precipitation Wind Pressure Humidity
    00:00 +6°C° 0 mm 7 mps 755 mmHg 66%
    01:00 +6°C° 0 mm 7 mps 755 mmHg 67%
    02:00 +6°C° 0 mm 7 mps 754 mmHg 68%
    03:00 +5°C° 0 mm 7 mps 754 mmHg 70%
    04:00 +5°C° 0 mm 6 mps 753 mmHg 72%
    05:00 +5°C° 0 mm 6 mps 753 mmHg 74%
    06:00 +5°C° 0 mm 6 mps 753 mmHg 72%
    07:00 +7°C° 0 mm 5 mps 753 mmHg 70%
    08:00 +7°C° 0 mm 5 mps 752 mmHg 68%
    09:00 +9°C° 0 mm 5 mps 752 mmHg 64%
    10:00 +12°C° 0 mm 5 mps 752 mmHg 60%
    11:00 +13°C° 0 mm 6 mps 752 mmHg 56%
    12:00 +14°C° 0 mm 6 mps 752 mmHg 56%
    13:00 +14°C° 0 mm 6 mps 751 mmHg 57%
    14:00 +14°C° 0 mm 6 mps 751 mmHg 58%
    15:00 +14°C° 0 mm 6 mps 750 mmHg 63%
    16:00 +13°C° 0 mm 6 mps 750 mmHg 67%
    17:00 +13°C° 0 mm 6 mps 749 mmHg 72%
    18:00 +12°C° 0 mm 7 mps 749 mmHg 74%
    19:00 +12°C° 0 mm 7 mps 750 mmHg 75%
    20:00 +12°C° 0 mm 8 mps 750 mmHg 77%
    21:00 +11°C° 0 mm 8 mps 750 mmHg 78%
    22:00 +11°C° 0 mm 8 mps 750 mmHg 79%
    23:00 +11°C° 0 mm 7 mps 749 mmHg 80%

    27 February, Thursday

    Time Temperature Precipitation Wind Pressure Humidity
    00:00 +11°C° 0 mm 8 mps 749 mmHg 78%
    01:00 +11°C° 0 mm 8 mps 749 mmHg 77%
    02:00 +11°C° 0 mm 8 mps 749 mmHg 76%
    03:00 +11°C° 0 mm 8 mps 749 mmHg 79%
    04:00 +10°C° 0 mm 9 mps 748 mmHg 82%
    05:00 +10°C° 0 mm 9 mps 748 mmHg 85%
    06:00 +11°C° 0.1 mm 10 mps 748 mmHg 84%
    07:00 +11°C° 0.1 mm 10 mps 748 mmHg 82%
    08:00 +11°C° 0.1 mm 11 mps 748 mmHg 81%
    09:00 +12°C° 0.4 mm 11 mps 748 mmHg 79%
    10:00 +12°C° 0.4 mm 10 mps 748 mmHg 76%
    11:00 +13°C° 0.4 mm 10 mps 748 mmHg 74%
    12:00 +13°C° 0.8 mm 10 mps 747 mmHg 73%
    13:00 +13°C° 0.8 mm 10 mps 747 mmHg 73%
    14:00 +12°C° 0.8 mm 11 mps 746 mmHg 73%
    15:00 +11°C° 0.6 mm 10 mps 746 mmHg 75%
    16:00 +10°C° 0.6 mm 9 mps 746 mmHg 78%
    17:00 +9°C° 0.6 mm 8 mps 746 mmHg 80%
    18:00 +8°C° 0.2 mm 7 mps 746 mmHg 81%
    19:00 +8°C° 0.2 mm 7 mps 747 mmHg 82%
    20:00 +7°C° 0.2 mm 6 mps 747 mmHg 82%
    21:00 +5°C° 0.8 mm 7 mps 748 mmHg 84%
    22:00 +3°C° 0.8 mm 7 mps 749 mmHg 85%
    23:00 +1°C° 0.8 mm 8 mps 750 mmHg 86%

    28 February, Friday

    Time Temperature Precipitation Wind Pressure Humidity
    00:00 +1°C° 0.2 mm 9 mps 751 mmHg 85%
    01:00 +1°C° 0.2 mm 9 mps 752 mmHg 85%
    02:00 0°C° 0.2 mm 10 mps 753 mmHg 84%
    03:00 0°C° 0 mm 9 mps 753 mmHg 82%
    04:00 0°C° 0 mm 9 mps 754 mmHg 80%
    05:00 +1°C° 0 mm 9 mps 755 mmHg 77%
    06:00 +1°C° 0 mm 8 mps 756 mmHg 75%
    07:00 +2°C° 0 mm 7 mps 756 mmHg 73%
    08:00 +2°C° 0 mm 6 mps 757 mmHg 71%
    09:00 +4°C° 0 mm 6 mps 758 mmHg 65%
    10:00 +6°C° 0 mm 5 mps 758 mmHg 59%
    11:00 +7°C° 0 mm 5 mps 759 mmHg 52%
    12:00 +8°C° 0 mm 5 mps 759 mmHg 49%
    13:00 +8°C° 0 mm 5 mps 759 mmHg 46%
    14:00 +9°C° 0 mm 6 mps 759 mmHg 43%
    15:00 +9°C° 0 mm 6 mps 759 mmHg 45%
    16:00 +8°C° 0 mm 6 mps 759 mmHg 47%
    17:00 +8°C° 0 mm 6 mps 759 mmHg 49%
    18:00 +7°C° 0 mm 6 mps 759 mmHg 53%
    19:00 +5°C° 0 mm 6 mps 759 mmHg 56%
    20:00 +4°C° 0 mm 6 mps 759 mmHg 60%
    21:00 +4°C° 0 mm 7 mps 759 mmHg 61%
    22:00 +5°C° 0 mm 7 mps 759 mmHg 62%
    23:00 +5°C° 0 mm 8 mps 759 mmHg 63%

    29 February, Saturday

    Time Temperature Precipitation Wind Pressure Humidity
    00:00 +5°C° 0 mm 8 mps 759 mmHg 61%
    01:00 +4°C° 0 mm 8 mps 759 mmHg 59%
    02:00 +4°C° 0 mm 7 mps 759 mmHg 57%
    03:00 +4°C° 0 mm 7 mps 759 mmHg 56%
    04:00 +5°C° 0 mm 6 mps 759 mmHg 56%
    05:00 +5°C° 0 mm 6 mps 759 mmHg 56%
    06:00 +5°C° 0 mm 6 mps 759 mmHg 56%
    07:00 +5°C° 0 mm 6 mps 759 mmHg 55%
    08:00 +7°C° 0 mm 6 mps 759 mmHg 55%
    09:00 +8°C° 0 mm 6 mps 759 mmHg 53%
    10:00 +10°C° 0 mm 6 mps 759 mmHg 50%
    11:00 +13°C° 0 mm 6 mps 759 mmHg 48%
    12:00 +13°C° 0 mm 6 mps 758 mmHg 47%
    13:00 +13°C° 0 mm 6 mps 758 mmHg 47%
    14:00 +14°C° 0 mm 7 mps 757 mmHg 46%
    15:00 +12°C° 0 mm 7 mps 757 mmHg 50%
    16:00 +13°C° 0 mm 6 mps 756 mmHg 55%
    17:00 +11°C° 0 mm 6 mps 756 mmHg 59%
    18:00 +10°C° 0 mm 7 mps 756 mmHg 61%
    19:00 +10°C° 0 mm 7 mps 756 mmHg 63%
    20:00 +9°C° 0 mm 7 mps 756 mmHg 65%
    21:00 +9°C° 0 mm 7 mps 756 mmHg 68%
    22:00 +9°C° 0 mm 7 mps 756 mmHg 72%
    23:00 +8°C° 0 mm 7 mps 756 mmHg 75%
    Show more